DAL3950 KSJC-KLAX

Flight info

Callsign DAL3950
Flight time 0h 53m
Altitude 31000
Route SPTNS1 VLREE EBAYE BURGL IRNMN2
Aircraft MD88/M-SDFGIRWY/S

Departure

Time 2026-04-24 19:06
Airport Norman Y. Mineta San Jose International Airport (KSJC)

Arrival

Time 2026-04-24 19:59
Airport Los Angeles International Airport (KLAX)
Time Latitude Longitude Altitude Speed Heading
2026-04-24 18:54 37.36652 -121.92709 54 ft 0 kts 48°
2026-04-24 18:56 37.36645 -121.92719 49 ft 2 kts 48°
2026-04-24 18:56 37.36634 -121.92735 48 ft 2 kts 48°
2026-04-24 18:57 37.36623 -121.92750 49 ft 2 kts 53°
2026-04-24 18:57 37.36616 -121.92769 56 ft 2 kts 84°
2026-04-24 18:57 37.36618 -121.92790 49 ft 2 kts 115°
2026-04-24 18:57 37.36628 -121.92806 51 ft 2 kts 138°
2026-04-24 18:58 37.36641 -121.92820 51 ft 2 kts 139°
2026-04-24 18:58 37.36646 -121.92825 54 ft 0 kts 140°
2026-04-24 19:01 37.36624 -121.92802 56 ft 14 kts 140°
2026-04-24 19:02 37.36574 -121.92748 54 ft 14 kts 139°
2026-04-24 19:02 37.36483 -121.92650 53 ft 12 kts 140°
2026-04-24 19:02 37.36407 -121.92564 57 ft 24 kts 137°
2026-04-24 19:02 37.36247 -121.92387 55 ft 32 kts 139°
2026-04-24 19:03 37.36081 -121.92204 55 ft 31 kts 139°
2026-04-24 19:03 37.35923 -121.92033 59 ft 29 kts 139°
2026-04-24 19:03 37.35778 -121.91875 62 ft 27 kts 139°
2026-04-24 19:03 37.35642 -121.91724 66 ft 25 kts 139°
2026-04-24 19:04 37.35509 -121.91579 62 ft 26 kts 139°
2026-04-24 19:04 37.35386 -121.91444 63 ft 20 kts 143°
2026-04-24 19:04 37.35284 -121.91480 66 ft 17 kts 230°
2026-04-24 19:04 37.35210 -121.91590 70 ft 16 kts 227°
2026-04-24 19:05 37.35139 -121.91695 70 ft 16 kts 244°
2026-04-24 19:05 37.35163 -121.91786 72 ft 28 kts 317°
2026-04-24 19:05 37.35577 -121.92237 64 ft 127 kts 319°
2026-04-24 19:05 37.36459 -121.93202 141 ft 202 kts 318°
2026-04-24 19:06 37.37521 -121.94484 1246 ft 214 kts 316°
2026-04-24 19:06 37.38608 -121.95678 2498 ft 201 kts 319°
2026-04-24 19:06 37.39703 -121.96795 3261 ft 207 kts 319°
2026-04-24 19:06 37.40947 -121.97780 3903 ft 219 kts 339°
2026-04-24 19:07 37.42498 -121.98177 4532 ft 240 kts 359°
2026-04-24 19:07 37.44242 -121.97837 4866 ft 272 kts 23°
2026-04-24 19:07 37.45335 -121.97015 4962 ft 279 kts 42°
2026-04-24 19:07 37.46630 -121.94288 5038 ft 275 kts 81°
2026-04-24 19:08 37.46562 -121.91919 5040 ft 272 kts 109°
2026-04-24 19:08 37.45618 -121.89898 5049 ft 270 kts 137°
2026-04-24 19:08 37.44114 -121.88504 5050 ft 269 kts 148°
2026-04-24 19:08 37.42530 -121.87237 5029 ft 270 kts 148°
2026-04-24 19:09 37.40954 -121.85952 5024 ft 269 kts 147°
2026-04-24 19:09 37.39394 -121.84667 5025 ft 268 kts 147°
2026-04-24 19:09 37.37842 -121.83363 5022 ft 267 kts 147°
2026-04-24 19:09 37.36311 -121.82035 5018 ft 268 kts 146°
2026-04-24 19:10 37.34796 -121.80680 5019 ft 268 kts 144°
2026-04-24 19:10 37.33291 -121.79301 5020 ft 268 kts 144°
2026-04-24 19:10 37.31827 -121.77869 5122 ft 267 kts 140°
2026-04-24 19:10 37.30398 -121.76283 5621 ft 279 kts 138°
2026-04-24 19:11 37.28960 -121.74615 6452 ft 284 kts 138°
2026-04-24 19:11 37.27512 -121.72924 7315 ft 285 kts 138°
2026-04-24 19:11 37.26062 -121.71228 8196 ft 285 kts 138°
2026-04-24 19:11 37.24595 -121.69518 8996 ft 289 kts 139°
2026-04-24 19:12 37.23110 -121.67793 9754 ft 293 kts 139°
2026-04-24 19:12 37.21592 -121.66046 10338 ft 304 kts 139°
2026-04-24 19:12 37.19966 -121.64197 10545 ft 327 kts 139°
2026-04-24 19:12 37.18215 -121.62220 10743 ft 349 kts 139°
2026-04-24 19:13 37.16969 -121.60814 10913 ft 363 kts 139°
2026-04-24 19:13 37.14435 -121.57951 11708 ft 374 kts 139°
2026-04-24 19:13 37.12497 -121.55758 12579 ft 376 kts 138°
2026-04-24 19:13 37.10556 -121.53563 13482 ft 377 kts 138°
2026-04-24 19:14 37.08602 -121.51362 14289 ft 380 kts 138°
2026-04-24 19:14 37.06621 -121.49115 14945 ft 387 kts 139°
2026-04-24 19:14 37.04594 -121.46862 15583 ft 393 kts 140°
2026-04-24 19:14 37.02508 -121.44620 16270 ft 397 kts 141°
2026-04-24 19:15 37.00379 -121.42371 16961 ft 402 kts 141°
2026-04-24 19:15 36.98222 -121.40099 17608 ft 409 kts 141°
2026-04-24 19:15 36.96033 -121.37788 18273 ft 415 kts 142°
2026-04-24 19:15 36.93819 -121.35447 18875 ft 419 kts 141°
2026-04-24 19:16 36.89352 -121.30720 20187 ft 423 kts 141°
2026-04-24 19:16 36.87101 -121.28331 20811 ft 426 kts 141°
2026-04-24 19:16 36.84834 -121.25920 21398 ft 430 kts 141°
2026-04-24 19:17 36.82547 -121.23488 21999 ft 433 kts 141°
2026-04-24 19:17 36.80243 -121.21037 22579 ft 436 kts 140°
2026-04-24 19:17 36.77926 -121.18574 23147 ft 440 kts 141°
2026-04-24 19:17 36.75590 -121.16093 23671 ft 444 kts 141°
2026-04-24 19:18 36.73225 -121.13585 24107 ft 447 kts 141°
2026-04-24 19:18 36.70845 -121.11067 24534 ft 451 kts 141°
2026-04-24 19:18 36.68435 -121.08524 24978 ft 454 kts 141°
2026-04-24 19:18 36.66015 -121.05972 25389 ft 458 kts 141°
2026-04-24 19:19 36.63574 -121.03396 25787 ft 462 kts 141°
2026-04-24 19:19 36.61113 -121.00801 26183 ft 465 kts 142°
2026-04-24 19:19 36.58620 -120.98213 26580 ft 468 kts 143°
2026-04-24 19:19 36.56089 -120.95646 26975 ft 471 kts 143°
2026-04-24 19:20 36.53540 -120.93081 27481 ft 471 kts 144°
2026-04-24 19:20 36.50998 -120.90518 28040 ft 470 kts 144°
2026-04-24 19:20 36.48464 -120.87956 28583 ft 469 kts 144°
2026-04-24 19:20 36.45931 -120.85391 29082 ft 470 kts 144°
2026-04-24 19:21 36.43404 -120.82826 29565 ft 470 kts 144°
2026-04-24 19:21 36.40873 -120.80255 30042 ft 470 kts 145°
2026-04-24 19:21 36.38340 -120.77686 30442 ft 470 kts 145°
2026-04-24 19:21 36.35800 -120.75112 30736 ft 473 kts 145°
2026-04-24 19:22 36.34109 -120.73403 30838 ft 475 kts 146°
2026-04-24 19:22 36.30682 -120.69941 30942 ft 474 kts 146°
2026-04-24 19:22 36.25596 -120.64804 30982 ft 470 kts 146°
2026-04-24 19:23 36.20509 -120.59702 30995 ft 470 kts 146°
2026-04-24 19:23 36.15434 -120.54611 31002 ft 473 kts 147°
2026-04-24 19:24 36.10325 -120.49481 31003 ft 473 kts 147°
2026-04-24 19:24 36.05216 -120.44357 30997 ft 474 kts 147°
2026-04-24 19:25 36.00073 -120.39208 31010 ft 477 kts 148°
2026-04-24 19:25 35.94918 -120.34059 30991 ft 477 kts 148°
2026-04-24 19:26 35.89756 -120.28900 30999 ft 478 kts 148°
2026-04-24 19:26 35.84461 -120.24014 31000 ft 471 kts 156°
2026-04-24 19:27 35.78850 -120.19900 30993 ft 469 kts 158°
2026-04-24 19:27 35.73225 -120.15813 30996 ft 470 kts 158°
2026-04-24 19:28 35.67624 -120.11627 30990 ft 470 kts 157°
2026-04-24 19:28 35.62955 -120.08092 30990 ft 470 kts 157°
2026-04-24 19:29 35.54597 -120.01749 30989 ft 471 kts 158°
2026-04-24 19:30 35.49016 -119.97537 30992 ft 470 kts 158°
2026-04-24 19:30 35.43439 -119.93342 30985 ft 469 kts 158°
2026-04-24 19:31 35.37872 -119.89164 30990 ft 469 kts 158°
2026-04-24 19:31 35.32318 -119.84998 30985 ft 467 kts 159°
2026-04-24 19:32 35.26816 -119.80689 30982 ft 475 kts 154°
2026-04-24 19:32 35.21553 -119.75724 30975 ft 480 kts 151°
2026-04-24 19:33 35.16316 -119.70668 30970 ft 478 kts 152°
2026-04-24 19:33 35.11062 -119.65716 30963 ft 476 kts 153°
2026-04-24 19:34 35.05824 -119.60858 30962 ft 475 kts 153°
2026-04-24 19:34 35.00561 -119.55988 30962 ft 474 kts 153°
2026-04-24 19:34 34.97925 -119.53550 30790 ft 480 kts 153°
2026-04-24 19:35 34.95204 -119.51040 30111 ft 486 kts 153°
2026-04-24 19:35 34.92546 -119.48584 29264 ft 485 kts 152°
2026-04-24 19:35 34.89867 -119.46119 28565 ft 479 kts 153°
2026-04-24 19:35 34.87233 -119.43734 28210 ft 465 kts 153°
2026-04-24 19:36 34.84660 -119.41427 27826 ft 454 kts 153°
2026-04-24 19:36 34.82135 -119.39176 27408 ft 446 kts 153°
2026-04-24 19:36 34.79656 -119.36974 26996 ft 438 kts 154°
2026-04-24 19:36 34.77216 -119.34810 26718 ft 428 kts 154°
2026-04-24 19:37 34.74832 -119.32689 26513 ft 425 kts 154°
2026-04-24 19:37 34.72379 -119.30550 25964 ft 448 kts 154°
2026-04-24 19:37 34.69800 -119.28336 25241 ft 455 kts 153°
2026-04-24 19:37 34.67227 -119.26106 24565 ft 453 kts 153°
2026-04-24 19:38 34.64668 -119.23871 23902 ft 452 kts 153°
2026-04-24 19:38 34.62136 -119.21666 23565 ft 442 kts 153°
2026-04-24 19:38 34.59665 -119.19513 23226 ft 432 kts 153°
2026-04-24 19:38 34.57255 -119.17416 22913 ft 421 kts 153°
2026-04-24 19:39 34.54896 -119.15362 22499 ft 415 kts 153°
2026-04-24 19:39 34.52550 -119.13310 21823 ft 416 kts 152°
2026-04-24 19:39 34.50201 -119.11249 21198 ft 416 kts 152°
2026-04-24 19:39 34.47855 -119.09182 20585 ft 416 kts 151°
2026-04-24 19:40 34.45520 -119.07114 19974 ft 415 kts 151°
2026-04-24 19:40 34.43195 -119.05053 19370 ft 414 kts 151°
2026-04-24 19:40 34.40863 -119.03016 18749 ft 412 kts 151°
2026-04-24 19:40 34.38535 -119.01001 18121 ft 411 kts 150°
2026-04-24 19:41 34.36217 -118.99000 17453 ft 407 kts 150°
2026-04-24 19:41 34.33927 -118.97017 16846 ft 404 kts 149°
2026-04-24 19:41 34.31686 -118.95024 16497 ft 394 kts 148°
2026-04-24 19:41 34.29520 -118.93049 16161 ft 383 kts 148°
2026-04-24 19:42 34.27436 -118.91130 15807 ft 372 kts 148°
2026-04-24 19:42 34.25434 -118.89284 15457 ft 359 kts 148°
2026-04-24 19:42 34.23430 -118.87445 14859 ft 363 kts 148°
2026-04-24 19:42 34.21416 -118.85602 14193 ft 364 kts 147°
2026-04-24 19:43 34.19403 -118.83759 13567 ft 362 kts 147°
2026-04-24 19:43 34.17402 -118.81923 13041 ft 356 kts 147°
2026-04-24 19:43 34.15555 -118.80148 12699 ft 326 kts 143°
2026-04-24 19:43 34.13922 -118.78403 12373 ft 303 kts 142°
2026-04-24 19:44 34.12372 -118.76683 12056 ft 304 kts 141°
2026-04-24 19:44 34.10803 -118.74947 11747 ft 313 kts 141°
2026-04-24 19:44 34.09185 -118.73162 11381 ft 314 kts 141°
2026-04-24 19:44 34.07580 -118.71396 10995 ft 311 kts 141°
2026-04-24 19:45 34.06005 -118.69658 10768 ft 305 kts 141°
2026-04-24 19:45 34.04452 -118.67953 10613 ft 295 kts 141°
2026-04-24 19:45 34.03139 -118.66100 10422 ft 292 kts 118°
2026-04-24 19:45 34.02558 -118.63758 10053 ft 294 kts 99°
2026-04-24 19:46 34.02329 -118.61318 9723 ft 291 kts 96°
2026-04-24 19:46 34.02129 -118.58911 9432 ft 288 kts 96°
2026-04-24 19:46 34.01941 -118.56506 9133 ft 289 kts 96°
2026-04-24 19:46 34.01762 -118.54102 8854 ft 288 kts 96°
2026-04-24 19:47 34.01584 -118.51725 8605 ft 283 kts 96°
2026-04-24 19:47 34.01398 -118.49381 8382 ft 279 kts 96°
2026-04-24 19:47 34.01202 -118.47066 8091 ft 277 kts 97°
2026-04-24 19:47 34.01158 -118.44740 7684 ft 280 kts 83°
2026-04-24 19:48 34.01508 -118.42415 7292 ft 281 kts 77°
2026-04-24 19:48 34.01926 -118.40145 6959 ft 271 kts 77°
2026-04-24 19:48 34.02745 -118.35709 6282 ft 271 kts 78°
2026-04-24 19:49 34.03330 -118.31380 6068 ft 248 kts 81°
2026-04-24 19:49 34.03838 -118.27383 6013 ft 240 kts 81°
2026-04-24 19:50 34.04667 -118.21348 5289 ft 246 kts 80°
2026-04-24 19:50 34.04960 -118.19311 4923 ft 247 kts 80°
2026-04-24 19:51 34.05547 -118.15234 4185 ft 246 kts 80°
2026-04-24 19:51 34.05842 -118.13201 3814 ft 245 kts 84°
2026-04-24 19:52 34.04326 -118.09999 3120 ft 234 kts 163°
2026-04-24 19:52 34.02756 -118.09537 2772 ft 231 kts 169°
2026-04-24 19:52 34.01172 -118.09561 2414 ft 230 kts 201°
2026-04-24 19:52 33.99940 -118.10719 2256 ft 222 kts 228°
2026-04-24 19:53 33.98983 -118.12151 2120 ft 215 kts 230°
2026-04-24 19:53 33.98112 -118.13576 2041 ft 208 kts 244°
2026-04-24 19:53 33.97634 -118.16810 2017 ft 184 kts 259°
2026-04-24 19:54 33.97448 -118.18274 1987 ft 170 kts 258°
2026-04-24 19:54 33.97290 -118.19648 1961 ft 163 kts 260°
2026-04-24 19:54 33.97176 -118.20994 1992 ft 160 kts 261°
2026-04-24 19:54 33.97045 -118.22339 2018 ft 164 kts 259°
2026-04-24 19:55 33.96947 -118.23247 2029 ft 166 kts 259°
2026-04-24 19:55 33.96753 -118.25091 2016 ft 167 kts 259°
2026-04-24 19:55 33.96606 -118.26477 2009 ft 167 kts 258°
2026-04-24 19:55 33.96464 -118.27849 2004 ft 163 kts 259°
2026-04-24 19:56 33.96328 -118.29191 1996 ft 161 kts 259°
2026-04-24 19:56 33.96193 -118.30477 1920 ft 148 kts 257°
2026-04-24 19:56 33.96063 -118.31690 1603 ft 142 kts 257°
2026-04-24 19:56 33.95961 -118.32822 1385 ft 135 kts 257°
2026-04-24 19:57 33.95847 -118.33941 1178 ft 132 kts 257°
2026-04-24 19:57 33.95733 -118.35029 997 ft 131 kts 257°
2026-04-24 19:57 33.95618 -118.36139 812 ft 133 kts 258°
2026-04-24 19:57 33.95508 -118.37239 667 ft 135 kts 260°
2026-04-24 19:58 33.95405 -118.38367 483 ft 137 kts 260°
2026-04-24 19:58 33.95299 -118.39511 266 ft 138 kts 260°
2026-04-24 19:58 33.95178 -118.40623 132 ft 127 kts 260°
2026-04-24 19:58 33.95065 -118.41580 126 ft 106 kts 264°
2026-04-24 19:59 33.95007 -118.42184 126 ft 42 kts 262°
2026-04-24 19:59 33.94953 -118.42503 122 ft 36 kts 244°
2026-04-24 19:59 33.94836 -118.42696 124 ft 26 kts 222°
2026-04-24 19:59 33.94744 -118.42763 125 ft 18 kts 196°
2026-04-24 20:00 33.94638 -118.42735 125 ft 10 kts 101°
2026-04-24 20:00 33.94636 -118.42707 125 ft 4 kts 87°
2026-04-24 20:00 33.94637 -118.42690 125 ft 1 kts 85°
2026-04-24 20:00 33.94644 -118.42624 126 ft 14 kts 83°
2026-04-24 20:01 33.94654 -118.42522 126 ft 11 kts 85°
2026-04-24 20:01 33.94661 -118.42443 126 ft 8 kts 83°
2026-04-24 20:01 33.94669 -118.42372 126 ft 9 kts 82°
2026-04-24 20:01 33.94680 -118.42258 126 ft 18 kts 83°
2026-04-24 20:02 33.94690 -118.42142 123 ft 24 kts 84°
2026-04-24 20:02 33.94719 -118.41877 124 ft 22 kts 84°
2026-04-24 20:02 33.94737 -118.41708 126 ft 19 kts 83°
2026-04-24 20:02 33.94751 -118.41565 126 ft 16 kts 82°
2026-04-24 20:03 33.94765 -118.41445 124 ft 13 kts 81°
2026-04-24 20:03 33.94785 -118.41349 126 ft 11 kts 77°
2026-04-24 20:03 33.94799 -118.41243 117 ft 16 kts 83°
2026-04-24 20:03 33.94814 -118.41095 125 ft 21 kts 83°
2026-04-24 20:04 33.94832 -118.40906 122 ft 23 kts 83°
2026-04-24 20:04 33.94851 -118.40727 125 ft 20 kts 83°
2026-04-24 20:04 33.94840 -118.40605 123 ft 9 kts 151°
2026-04-24 20:04 33.94788 -118.40585 124 ft 8 kts 174°
2026-04-24 20:05 33.94735 -118.40579 122 ft 8 kts 174°
2026-04-24 20:05 33.94647 -118.40567 124 ft 5 kts 173°
2026-04-24 20:05 33.94634 -118.40563 124 ft 3 kts 150°
2026-04-24 20:05 33.94622 -118.40494 124 ft 1 kts 90°
2026-04-24 20:06 33.94622 -118.40493 124 ft 1 kts 90°
2026-04-24 20:06 33.94622 -118.40489 125 ft 0 kts 90°